Wind_Speed
51 52 51 51 46 43 39 43 47 43 37 45 58 53 59 42 38 26 25 23 19 16 20 17 25 30 27 15 33 40 31 21 23 18 15 19 18 19 18 15 10 5 5 13
53 54 53 53 53 52 47 47 49 40 40 50 49 62 61 41 30 34 27 27 25 27 16 16 21 25 29 23 20 24 34 25 21 21 19 20 17 18 19 16 14 13 9 9
58 49 51 56 57 56 52 53 50 34 38 43 52 67 67 44 36 30 30 25 26 24 21 22 16 24 26 29 27 24 26 27 32 23 22 20 19 20 20 21 17 18 19 19
51 56 54 56 60 57 57 60 48 57 53 52 60 60 67 54 51 35 31 28 30 29 20 17 15 19 24 23 28 28 33 32 26 26 23 23 26 23 25 27 25 23 23 20
50 50 48 57 61 59 63 65 47 52 43 50 52 59 56 55 42 41 34 31 25 29 22 15 12 17 22 16 26 29 30 21 24 25 24 26 25 25 26 26 26 26 23 24
50 50 50 51 56 63 67 63 56 41 47 41 46 59 60 50 44 41 33 33 27 31 35 16 15 19 13 9 9 28 30 30 23 23 22 22 16 27 24 25 25 26 26 24
50 51 50 49 57 64 65 56 65 40 37 41 52 60 48 50 43 44 31 26 29 34 37 33 32 30 16 18 13 16 24 28 22 18 19 8 20 19 19 23 26 24 24 24
51 49 50 49 61 63 63 55 65 51 35 36 40 48 48 37 36 38 36 27 23 28 32 27 23 23 30 24 19 19 21 23 16 13 17 19 17 22 20 23 24 22 26 24
51 49 48 47 61 61 64 53 67 44 41 33 27 39 39 47 39 31 31 30 28 24 22 15 11 15 23 9 10 21 22 25 21 18 12 9 19 20 20 19 27 20 22 22
48 47 47 55 56 58 64 49 64 52 33 25 30 31 35 41 38 35 34 29 32 29 26 21 13 12 19 23 7 11 25 26 27 24 12 15 17 16 16 16 29 15 21 17
44 43 45 49 46 52 59 46 56 64 41 29 28 30 28 33 36 41 34 31 34 33 32 21 15 13 18 17 26 18 21 23 21 19 14 15 19 20 22 27 22 20 22 16
41 43 46 38 48 52 53 42 51 58 43 28 32 32 32 36 32 33 36 45 39 38 26 22 20 18 16 18 18 29 23 20 20 26 24 28 23 20 20 19 24 23 21 18
42 42 44 46 49 53 47 42 44 51 49 41 23 26 36 34 37 41 36 40 41 38 39 28 29 18 29 25 30 29 37 25 26 26 29 29 26 24 26 28 27 25 21 19
39 45 39 40 49 45 40 39 33 44 45 35 29 6 38 37 41 41 42 28 32 27 23 36 30 26 26 24 24 27 32 35 29 33 30 26 26 27 26 27 26 26 21 19
36 37 36 41 43 42 38 31 35 41 40 19 37 19 15 38 44 44 43 39 27 30 23 31 35 28 24 30 28 35 35 28 32 37 29 29 23 23 24 24 24 22 21 22
34 40 41 46 43 40 34 35 32 34 37 26 10 14 14 36 31 41 45 44 32 34 31 24 27 32 28 19 34 35 38 33 29 31 29 26 24 23 22 21 21 20 21 21
37 34 37 39 34 29 35 36 38 34 38 29 13 5 15 18 27 31 33 37 38 35 28 29 30 29 30 36 39 28 28 26 25 23 22 26 25 23 24 19 22 22 23 25
33 33 31 31 28 27 31 28 27 35 33 31 11 4 17 24 15 38 34 35 36 36 39 32 29 27 32 33 34 27 24 27 29 24 24 25 24 26 25 22 23 25 26 27
35 34 33 29 25 24 27 26 18 23 33 11 10 2 9 12 16 12 14 25 36 29 42 39 31 34 28 22 24 21 23 27 27 30 32 30 27 26 30 28 25 28 30 30
35 33 30 30 28 30 23 26 34 37 26 13 11 9 9 10 11 12 12 18 20 32 30 31 38 37 35 31 21 13 20 26 29 37 37 35 33 34 31 30 31 31 31 33
40 36 31 28 28 29 16 16 14 13 9 14 21 14 12 11 7 7 11 5 11 11 13 23 16 24 32 33 30 29 28 19 19 26 30 33 30 30 32 31 30 29 30 34
33 29 29 24 20 15 5 11 10 5 10 11 20 16 12 13 10 4 5 5 6 6 11 13 11 18 21 24 27 36 36 35 30 29 32 33 32 28 33 37 29 24 26 28
29 27 14 13 8 7 6 7 9 10 14 15 15 19 15 11 11 8 8 6 6 6 11 6 2 14 19 24 25 26 31 33 31 32 34 28 29 27 26 36 41 43 30 30
19 9 9 5 5 9 7 12 12 17 15 16 10 13 13 13 15 7 6 7 7 5 3 3 6 2 12 18 21 24 24 26 24 19 20 20 21 25 32 28 27 19 22 25
4 5 5 2 6 12 20 25 19 20 18 16 20 18 10 10 5 6 5 5 6 6 6 8 5 3 2 2 2 3 4 5 6 8 11 12 10 13 14 15 13 13 14 15
4 2 5 5 8 12 14 17 22 27 29 26 18 7 6 4 5 3 5 5 6 5 8 8 6 5 5 4 3 2 2 4 6 6 5 6 6 5 4 5 8 10 11 12
5 5 8 11 14 16 20 21 22 24 23 19 9 6 4 6 5 6 6 11 11 9 9 8 7 8 9 9 8 9 7 6 6 5 5 3 3 2 3 4 5 5 6 7
Wind_Direction
241 243 238 229 224 220 214 213 208 223 212 203 194 202 212 212 222 211 212 216 219 209 210 206 212 215 209 205 205 210 208 214 222 219 222 225 229 228 221 222 210 221 252 265
236 241 229 226 220 215 209 207 203 218 216 203 203 210 217 217 225 212 211 211 220 223 214 208 213 216 217 208 205 204 203 212 216 223 236 232 225 228 228 229 236 241 245 260
235 233 223 222 218 213 201 198 197 199 213 226 209 210 214 220 218 221 217 209 213 218 214 211 208 218 217 214 219 221 221 208 214 220 225 226 227 228 226 228 236 249 247 277
229 229 225 220 218 210 195 194 196 201 202 209 209 209 215 211 211 210 212 222 217 210 211 196 204 206 205 207 211 213 212 216 219 227 237 242 243 239 236 234 243 255 267 265
226 222 216 215 213 204 195 194 193 200 214 211 210 208 212 207 204 208 214 218 216 213 220 195 188 187 195 204 212 215 211 215 219 226 233 244 244 241 243 245 246 253 256 261
220 216 216 216 210 200 194 201 192 198 205 208 208 208 211 206 199 206 217 222 219 223 217 212 210 178 171 184 228 219 216 215 225 235 243 243 243 242 240 242 243 253 251 262
213 213 215 211 208 199 199 204 200 195 202 206 215 212 210 209 199 199 208 215 217 230 231 237 234 228 217 264 243 227 215 217 217 230 220 222 247 247 255 245 248 251 261 268
207 207 207 204 205 195 198 205 198 200 197 212 211 205 208 207 204 202 201 210 225 230 232 237 240 224 240 250 252 237 220 219 215 207 222 245 244 242 249 250 257 258 265 267
200 200 201 204 200 195 198 200 200 199 201 208 200 204 205 199 196 193 196 213 213 220 216 206 203 213 220 221 224 227 220 223 210 206 221 237 254 249 245 255 259 259 272 290
189 192 192 197 189 191 197 202 199 199 198 203 198 201 196 198 202 199 194 195 204 220 211 209 213 210 212 221 235 210 207 215 213 219 230 243 244 243 234 219 263 273 284 275
180 181 187 189 192 193 196 200 200 205 202 202 203 204 193 193 194 196 194 190 211 222 218 212 216 205 202 210 223 241 219 205 210 211 221 243 242 231 222 263 273 278 299 260
176 178 181 181 196 195 193 202 201 203 199 207 212 214 197 194 213 195 205 212 218 218 211 219 218 226 218 203 218 219 240 222 223 230 237 244 259 257 262 263 282 284 291 259
167 173 172 179 181 186 194 207 203 207 207 213 230 239 197 193 195 195 209 213 220 225 224 221 225 222 226 221 228 234 234 234 248 247 247 249 255 259 266 276 285 280 280 260
164 163 160 173 180 185 197 202 201 195 200 214 217 215 191 192 196 200 202 212 218 217 221 220 223 227 232 238 233 245 232 238 248 249 248 249 255 264 271 278 278 275 260 242
144 151 154 174 183 190 192 193 187 194 203 226 215 235 181 196 196 198 201 203 202 207 211 215 220 222 233 235 234 239 235 234 237 244 251 261 266 269 278 276 270 263 249 241
151 155 162 173 183 186 185 190 195 202 199 209 225 249 222 190 194 202 200 199 195 198 215 224 221 221 225 236 237 241 240 242 242 247 250 263 252 265 274 272 250 248 243 236
143 151 172 177 182 183 196 202 193 196 206 213 261 191 192 177 182 187 196 202 208 213 217 221 226 226 224 234 239 239 241 234 232 239 251 250 253 280 266 267 256 245 239 234
144 150 161 170 173 177 192 203 207 217 216 215 252 228 179 184 184 185 185 193 198 211 212 220 218 217 224 239 243 244 242 241 242 245 250 253 254 272 259 267 260 248 243 241
146 146 148 148 152 160 178 194 194 202 183 213 230 176 141 170 200 183 186 196 199 209 215 219 223 229 230 238 243 247 242 239 240 242 246 247 262 258 255 253 259 252 244 242
146 143 148 153 151 115 128 131 156 170 201 233 222 164 124 147 156 178 173 174 188 209 217 223 228 232 237 234 232 221 249 244 245 247 249 252 263 252 254 255 253 248 247 246
134 144 149 131 119 127 136 146 168 183 209 233 188 184 158 139 154 181 200 160 174 185 207 207 229 239 241 239 240 250 253 256 256 251 248 251 251 248 249 246 249 246 248 250
138 136 138 127 128 150 175 165 184 196 202 225 218 210 188 156 167 163 186 204 173 183 187 192 227 233 234 238 239 244 250 255 260 263 264 262 263 247 243 241 231 247 261 266
137 136 138 132 128 178 167 179 205 206 185 201 202 198 211 207 208 186 198 196 187 176 176 178 194 223 223 226 227 232 237 240 236 235 239 235 238 241 253 252 239 254 249 249
139 125 139 197 192 177 193 199 204 205 217 201 197 176 177 188 178 172 177 163 149 149 88 32 353 211 219 227 226 224 218 222 234 250 259 260 263 255 254 255 245 235 232 230
136 142 167 116 188 196 200 195 218 214 193 184 169 176 171 158 157 145 133 132 75 69 19 1 11 27 98 136 173 202 207 216 216 235 234 226 225 223 225 219 213 218 228 233
100 44 112 104 128 139 151 164 161 169 178 177 165 144 154 122 112 101 78 80 70 45 37 37 44 50 66 78 76 88 136 159 172 175 163 167 173 183 213 233 236 239 240 241
75 80 98 106 120 108 107 119 136 144 153 171 143 138 115 118 87 82 70 98 101 87 68 56 64 72 85 95 103 105 106 109 108 114 120 115 150 228 254 247 241 238 236 244
Height
2909 2917 2926 2934 2943 2955 2962 2968 2973 2977 2990 3000 2999 3008 3014 3025 3029 3033 3037 3039 3045 3045 3047 3048 3050 3054 3058 3060 3068 3071 3078 3084 3086 3089 3090 3092 3093 3095 3097 3097 3099 3100 3100 3099
2891 2898 2908 2919 2928 2939 2948 2952 2964 2970 2980 2984 2990 3002 3008 3016 3024 3028 3032 3035 3041 3041 3044 3046 3046 3049 3052 3058 3062 3067 3072 3076 3081 3083 3087 3087 3089 3091 3093 3094 3094 3094 3096 3094
2872 2880 2891 2902 2911 2922 2932 2941 2953 2959 2965 2972 2986 2985 2993 3006 3015 3023 3028 3030 3035 3035 3040 3038 3040 3041 3046 3052 3058 3062 3066 3070 3072 3074 3077 3082 3084 3085 3087 3089 3089 3089 3088 3089
2856 2866 2877 2887 2897 2908 2916 2924 2932 2937 2942 2954 2960 2977 2983 2989 3006 3016 3022 3024 3027 3032 3036 3035 3035 3037 3041 3047 3052 3056 3061 3064 3068 3071 3074 3076 3077 3079 3081 3082 3083 3083 3083 3084
2842 2851 2862 2866 2882 2895 2902 2909 2922 2930 2937 2948 2957 2969 2973 2981 2996 3009 3014 3019 3024 3030 3031 3033 3031 3033 3036 3042 3047 3051 3055 3060 3063 3065 3069 3069 3070 3072 3074 3075 3076 3076 3077 3078
2827 2838 2848 2857 2869 2880 2888 2902 2918 2927 2935 2941 2951 2957 2968 2972 2988 3003 3009 3017 3021 3023 3026 3027 3029 3030 3033 3037 3042 3045 3049 3054 3059 3060 3062 3063 3063 3062 3066 3068 3069 3071 3070 3072
2813 2825 2836 2848 2858 2869 2885 2896 2911 2918 2926 2935 2934 2947 2963 2972 2976 2991 3003 3011 3014 3018 3020 3025 3026 3028 3028 3033 3037 3041 3043 3048 3053 3055 3056 3056 3056 3057 3059 3060 3062 3064 3065 3066
2800 2814 2827 2837 2850 2866 2882 2891 2902 2913 2922 2926 2935 2945 2959 2971 2979 2986 2996 3003 3010 3015 3018 3023 3022 3024 3032 3030 3031 3035 3037 3042 3046 3047 3049 3049 3048 3050 3053 3054 3056 3059 3057 3059
2792 2807 2819 2831 2846 2862 2876 2887 2900 2911 2920 2924 2932 2939 2951 2962 2971 2982 2990 2999 3004 3009 3011 3016 3016 3017 3024 3025 3024 3027 3032 3036 3041 3040 3042 3040 3044 3046 3049 3051 3045 3053 3051 3051
2789 2804 2817 2825 2844 2859 2871 2884 2897 2908 2916 2925 2931 2936 2944 2958 2970 2977 2983 2989 2998 3004 3007 3010 3010 3012 3014 3020 3020 3022 3024 3028 3032 3035 3035 3035 3038 3041 3043 3046 3041 3045 3045 3044
2789 2803 2816 2830 2846 2858 2869 2883 2894 2904 2913 2920 2927 2934 2941 2951 2962 2968 2975 2986 2991 2997 3000 3002 3004 3007 3009 3013 3016 3018 3020 3022 3024 3030 3031 3030 3031 3035 3037 3036 3036 3037 3036 3036
2793 2806 2819 2831 2845 2858 2871 2880 2889 2901 2913 2918 2924 2929 2935 2942 2957 2965 2965 2972 2979 2986 2993 2997 2999 3000 3004 3007 3010 3014 3018 3016 3019 3020 3020 3023 3024 3027 3030 3031 3031 3030 3029 3029
2799 2810 2823 2837 2848 2859 2870 2877 2889 2900 2912 2919 2923 2927 2934 2941 2946 2956 2962 2968 2972 2977 2986 2993 2995 2995 3000 3001 3004 3010 3008 3010 3012 3015 3015 3018 3020 3021 3023 3024 3024 3023 3022 3022
2805 2816 2829 2841 2851 2861 2870 2879 2889 2903 2912 2916 2920 2917 2926 2932 2940 2947 2954 2964 2969 2977 2981 2985 2989 2991 2994 2995 3000 2999 3003 3005 3006 3007 3009 3012 3014 3016 3017 3017 3016 3016 3015 3017
2812 2823 2834 2845 2853 2862 2873 2884 2894 2903 2913 2913 2917 2917 2920 2925 2930 2938 2947 2955 2962 2970 2975 2975 2980 2985 2990 2990 2993 2990 2994 2996 2998 2999 3005 3007 3010 3009 3009 3009 3009 3009 3009 3010
2822 2832 2841 2848 2856 2866 2877 2887 2895 2899 2908 2915 2916 2915 2915 2919 2927 2934 2940 2949 2957 2963 2968 2971 2974 2977 2983 2982 2978 2984 2987 2990 2994 2995 2998 3000 3001 3002 3001 3001 3001 3002 3003 3005
2831 2838 2845 2854 2863 2873 2881 2885 2893 2899 2907 2913 2915 2910 2912 2915 2923 2930 2938 2946 2950 2957 2963 2964 2969 2972 2974 2972 2970 2980 2981 2985 2986 2988 2991 2993 2994 2994 2995 2995 2996 2996 2997 2999
2838 2846 2855 2863 2869 2876 2883 2890 2897 2903 2909 2916 2913 2908 2912 2914 2911 2924 2932 2938 2946 2951 2955 2958 2962 2965 2966 2962 2966 2971 2975 2977 2980 2982 2984 2986 2987 2988 2988 2988 2990 2990 2991 2992
2844 2851 2858 2866 2873 2879 2884 2889 2895 2901 2913 2912 2910 2907 2909 2913 2917 2919 2925 2930 2939 2944 2946 2951 2958 2957 2955 2957 2963 2966 2968 2971 2974 2975 2976 2978 2978 2979 2980 2981 2982 2983 2984 2985
2850 2858 2864 2870 2874 2880 2885 2892 2898 2905 2906 2910 2908 2909 2911 2914 2915 2917 2925 2928 2933 2939 2942 2948 2947 2947 2950 2955 2957 2959 2961 2962 2964 2965 2967 2969 2971 2971 2972 2973 2974 2976 2977 2978
2858 2864 2868 2874 2877 2884 2890 2895 2900 2903 2904 2904 2906 2909 2913 2916 2918 2920 2924 2922 2929 2932 2937 2941 2941 2943 2945 2949 2952 2955 2957 2958 2958 2958 2959 2960 2961 2962 2963 2963 2965 2967 2968 2969
2867 2870 2874 2876 2883 2890 2892 2896 2899 2899 2901 2902 2905 2909 2912 2917 2920 2922 2924 2925 2926 2928 2931 2936 2936 2937 2938 2941 2944 2947 2949 2950 2952 2952 2952 2952 2953 2954 2955 2953 2955 2957 2958 2958
2875 2878 2881 2885 2889 2890 2890 2889 2890 2893 2898 2901 2903 2907 2912 2916 2918 2921 2922 2923 2925 2927 2928 2927 2929 2930 2931 2933 2935 2938 2940 2941 2942 2943 2943 2943 2945 2945 2945 2948 2946 2948 2948 2949
2879 2883 2885 2885 2887 2888 2888 2890 2892 2894 2896 2900 2904 2907 2911 2913 2915 2917 2918 2920 2922 2923 2925 2927 2927 2925 2925 2927 2928 2930 2930 2931 2932 2933 2935 2937 2936 2937 2938 2937 2936 2939 2943 2946
2881 2883 2884 2884 2884 2885 2886 2890 2890 2892 2897 2901 2905 2908 2910 2911 2912 2912 2916 2918 2920 2924 2928 2926 2925 2924 2924 2924 2924 2925 2925 2925 2926 2928 2929 2929 2931 2934 2935 2936 2936 2938 2941 2943
2883 2882 2883 2883 2883 2883 2884 2886 2888 2893 2897 2901 2904 2905 2908 2910 2911 2912 2915 2919 2924 2928 2927 2926 2925 2925 2924 2924 2924 2925 2925 2926 2927 2928 2929 2930 2931 2933 2934 2935 2936 2938 2939 2941
2884 2885 2884 2884 2884 2883 2883 2885 2888 2892 2897 2899 2902 2904 2907 2910 2911 2915 2918 2922 2926 2927 2928 2928 2927 2926 2925 2926 2927 2927 2928 2929 2930 2930 2931 2932 2933 2934 2935 2936 2937 2938 2940 2941